WESTFORD NEEDLES, 702

Orbit data source: Space-Track

WESTFORD NEEDLES, 702 is space debris in LEO originally from a launch on Thu, 09 May 1963 UTC launched from the Air Force Western Test Range (AFWTR). Debris objects in space refer to the collection of defunct objects orbiting the Earth. Examples of debris include non-operational satellites, rocket bodies, and fragments generated from explosions, collisions, or faulty payload assembly.

Loading next visibility...
Identifier
702, 1963-014H
Orbit
LEO
Country
Flag of USUS
Related business
Manufacturer
Unknown
Mission
Spacecraft
Bus & Motor
Unknown
Mass
Unknown
Launch date (UTC)
1963-05-09 (62 years ago)
Launch vehicle
Unknown
Launch site
Air Force Western Test Range (AFWTR)
Object type
Payload
Rocket body
Debris
Shape & HBR
Unknown shape, 0.9 m
Radar Cross Section
Medium (>0.1 m² and <1 m²)

Expand to show TLE details & history
Last TLE update: 2 days ago

TLE from 2 days ago
0 WESTFORD NEEDLES
1 00702U 63014H   25307.71878650 -.00000048  00000-0 -23423-1 0  9991
2 00702  87.3533 211.1146 0118644 273.7405  84.9891  8.65656726974761
Epoch: 2025-11-03T17:15Z
TLE epoch observation values (Epoch: 2025-11-03T17:15:03.153Z)
Latitude
0.00006°
Longitude
-90.86467°
Altitude
3,634.383 km
Speed
6.313 km/s
True Right ascension
14h 04m 27s
True Declination
0° 00' 00"
Sunlit
Object was in daylight at epoch
Visualization orbit readout
Latitude
Unknown
Longitude
Unknown
Altitude
Unknown
Speed
Unknown
Apparent Right ascension
Unknown
Apparent Declination
Unknown
Sunlit
N/A
Visualization observer readout
Local Sidereal Time
08:12:37
Azimuth
Unknown
Elevation
Unknown
Doppler factor
Unknown
Orbital elements
Apogee altitude
3,757.848 km
Perigee altitude
3,520.153 km
Semi-major axis
10,017.137 km
Eccentricity
0.01186
Inclination
87.3533°
RAAN
211.1146°
Arg. of periapsis
273.7405°
True anomaly
86.34509°
Mean anomaly
84.9891°
Eccentric anomaly
85.66694°
Mean motion
2.16485 °/min
Orbital period
166.29 mins
BSTAR
-0.023423
Loading maneuver chart data...
Computing Atmospheric mass density...

Documentation

Showing up to 5 results
|